Flag for Australia Weather past 2 weeks in Darwin, Northern Territory, Australia

Now
86 °F

Passing clouds.


Feels Like: 95 °F
Forecast: 80 / 92 °F
Wind: 6 mph from West

Location: Darwin Airport

Current Time: Dec 22, 2014 at 11:11:01 PM

Latest Report: Dec 22, 2014 at 10:30 PM


Visibility: N/A

Pressure: 29.77 "Hg

Humidity: 70%

Dew point: 75 °F

Location of DarwinLocation

Historic Weather in Darwin — Graph

°F

Darwin temperature yesterday

Maximum temperature yesterday: 91 °F (at 12:30 PM)
Minimum temperature yesterday: 81 °F (at 1:00 AM)
Average temperature yesterday: 86 °F

Past Weeks' High & Low Weather Summary

 TemperatureHumidityPressure
High95 °F (Dec 20, 4:00 PM)100% (Dec 20, 5:30 AM)29.86 "Hg (Dec 20, 5:30 AM)
Low77 °F (Dec 11, 7:00 AM)39% (Dec 20, 5:30 PM)29.65 "Hg (Dec 15, 4:30 PM)
Average86 °F73%29.76 "Hg
* Reported Dec 7 9:30 PM — Dec 22 9:30 PM, Darwin, Weather by CustomWeather, © 2014

Note: Actual official high and low records may vary slightly from our data, if they occured in-between our weather recording intervals... More about our weather records

Advertising

Darwin weather history for previous 24 hours

 ConditionsComfort  
Time TempWeatherWind HumidityBarometerVisibility
9:30 PM
Dec 22
86 °FClear.6 mph70%29.74 "Hg10 mi
9:00 PM86 °FClear.6 mph70%29.74 "Hg10 mi
8:30 PM88 °FClear.7 mph62%29.74 "Hg10 mi
8:00 PM88 °FClear.9 mph62%29.74 "Hg10 mi
7:30 PM88 °FPartly sunny.10 mph62%29.71 "HgN/A
7:00 PM90 °FPartly sunny.9 mph55%29.71 "HgN/A
6:30 PM90 °FPartly sunny.12 mph55%29.68 "HgN/A
6:00 PM91 °FPartly sunny.13 mph52%29.68 "HgN/A
5:30 PM91 °FPartly sunny.10 mph49%29.68 "HgN/A
5:00 PM93 °FPartly sunny.12 mph47%29.68 "HgN/A
4:30 PM95 °FPartly sunny.12 mph39%29.68 "HgN/A
4:00 PM95 °FPartly sunny.9 mph44%29.71 "HgN/A
3:30 PM93 °FPassing clouds.10 mph49%29.71 "HgN/A
2:30 PM93 °FPartly sunny.10 mph49%29.71 "HgN/A
2:00 PM93 °FPartly sunny.10 mph49%29.74 "HgN/A
1:30 PM91 °FPartly sunny.10 mph52%29.74 "HgN/A
1:00 PM93 °FPartly sunny.13 mph49%29.77 "HgN/A
12:30 PM90 °FPartly sunny.10 mph55%29.77 "HgN/A
12:00 PM91 °FPartly sunny.9 mph52%29.77 "HgN/A
11:30 AM90 °FPartly sunny.9 mph59%29.80 "HgN/A
11:00 AM90 °FPartly sunny.8 mph59%29.80 "HgN/A
10:30 AM88 °FPartly sunny.7 mph62%29.80 "HgN/A
9:30 AM84 °FBroken clouds.6 mph70%29.80 "HgN/A
9:00 AM82 °FBroken clouds.3 mph79%29.80 "HgN/A
8:30 AM81 °FBroken clouds.8 mph84%29.80 "HgN/A
8:00 AM82 °FSprinkles. Broken clouds.10 mph79%29.80 "HgN/A
7:30 AM81 °FScattered clouds.9 mph89%29.77 "HgN/A
6:30 AM82 °FPassing clouds.7 mph84%29.74 "HgN/A
6:00 AM82 °FPartly cloudy.6 mph89%29.74 "HgN/A
5:30 AM82 °FPassing clouds.5 mph89%29.74 "HgN/A
5:00 AM82 °FPassing clouds.3 mph89%29.74 "HgN/A
4:30 AM82 °FScattered showers. Passing clouds.3 mph89%29.74 "HgN/A
4:00 AM82 °FPassing clouds.6 mph89%29.74 "HgN/A
3:30 AM82 °FPartly cloudy.5 mph89%29.74 "HgN/A
3:00 AM82 °FPassing clouds.5 mph89%29.74 "HgN/A
2:30 AM84 °FPassing clouds.6 mph79%29.74 "HgN/A
2:00 AM84 °FPassing clouds.7 mph79%29.74 "HgN/A
1:30 AM84 °FPassing clouds.6 mph79%29.74 "HgN/A
1:00 AM84 °FPassing clouds.7 mph79%29.74 "HgN/A
12:30 AM84 °FClear.6 mph79%29.74 "Hg10 mi
11:00 PM
Dec 21
86 °FClear.7 mph75%29.74 "Hg10 mi
Weather by CustomWeather, © 2014

See weather overviewHow to use our weather pages